NOAA 16 DEB, 41126

Orbit data source: Space-Track

NOAA 16 DEB, 41126 is space debris in LEO originally from a launch on Thu, 21 Sep 2000 UTC launched from the Air Force Western Test Range (AFWTR). Debris objects in space refer to the collection of defunct objects orbiting the Earth. Examples of debris include non-operational satellites, rocket bodies, and fragments generated from explosions, collisions, or faulty payload assembly.

Loading next visibility...
NOAA 16 DEB details
Identifier
41126, 2000-055BH
Orbit
LEO
Last TLE update1 day ago
Origin
Flag of USNOAA (US)
ManufacturerUnknown
MissionSpacecraft
Bus & MotorUnknown
MassUnknown
Launch date (UTC)
2000-09-21 (24 years ago)
Launch vehicleUnknown
Launch site
Air Force Western Test Range (AFWTR)
Object type
Payload
Rocket body
Debris
Shape & HBRUnknown
Radar Cross SectionSmall (<0.1 m²)

Expand to show TLE details & history

TLE from 1 day ago
0 NOAA 16 DEB
1 41126U 00055BH  24336.27511217  .00007125  00000-0  40353-2 0  9990
2 41126  98.7637 340.7166 0069518 152.6178 207.8684 14.09116119459907
Epoch: 2024-12-01T06:36Z
Definitive object data (Epoch: 2024-12-01T06:36:09.691Z)
Latitude0.00004°
Longitude171.06055°
Altitude909.878 km
Speed7.374 km/s
True Right ascension22h 42m 51s
True Declination0° 00' 00"
Sunlit
Object was in daylight at TLE epoch
Visualization TLE readout
Latitude49.0595°
Longitude2.44119°
Altitude822.373 km
Speed7.471 km/s
Apparent Right ascension17h 03m 47s
Apparent Declination35° 26' 30"
Sunlit
Object is in daylight
Visualization observer readout
Local Sidereal Time09:58:09
Azimuth52.836° ENE
Elevation11.277°
Doppler factor1
Orbital elements
Apogee altitude909.889 km
Perigee altitude809.258 km
Semi-major axis7,237.71 km
Eccentricity0.0069518
Inclination98.7637°
RAAN340.7166°
Arg. of periapsis152.6178°
True anomaly207.49887°
Mean anomaly207.8684°
Eccentric anomaly207.68335°
Mean motion3.52486 °/min
BSTAR0.0040353
Orbital period102.13 mins
Loading maneuver chart data...
Loading historical data...
Loading historical data...
Loading historical data...
Loading historical data...
Loading historical data...
Loading historical data...
Loading historical data...

NOAA 16 DEB Visibility forecast

Observer location: undefined°, undefined

Span
Click to sort rows by Start time (UTC) header in descending order
Start Az.
Max El. time (UTC)
Max El. Az.
Max El.
End time (UTC)
End Az.
6 mins2024-12-02 12:11:18.500Z53.047° ENE2024-12-02 12:14:18.500Z89.628° E17.157°2024-12-02 12:17:18.500Z128.189° SE
8 mins2024-12-02 13:52:18.500Z357.491° N2024-12-02 13:55:18.500Z307.65° NW37.989°2024-12-02 14:00:18.500Z214.768° SW
8 mins2024-12-02 23:39:18.500Z119.502° SE2024-12-02 23:42:18.500Z72.512° E29.584°2024-12-02 23:47:18.500Z5.384° NNE
7 mins2024-12-03 01:20:18.500Z215° SW2024-12-03 01:23:18.500Z261.533° W27.642°2024-12-03 01:27:18.500Z319.117° NNW
4 mins2024-12-03 12:04:18.500Z70.398° E2024-12-03 12:06:18.500Z95.587° ESE14.339°2024-12-03 12:08:18.500Z119.44° SE
|